E3891 Weather Reports


time (UTC)temp
F
wind
direction
speed
knots
gust
knots
rain 1hr
in
rain 24hr
in
rain mn
in
humidity
%
barometer
mb
20260906155606 0 36 1.7 7.0 0.00 0.14 0.20 1015.7
20260906155059 0 23 2.6 7.0 0.00 0.14 0.20 1015.8
20260906154603 0 79 3.5 7.0 0.00 0.14 0.20 1015.9
20260906154058 0 115 2.6 7.0 0.00 0.14 0.20 1015.6
20260906153606 33 5 5.2 7.0 0.00 0.14 0.20 91 1015.9
20260906153111 33 38 2.6 7.0 0.00 0.14 0.20 91 1015.6
20260906152607 33 121 2.6 7.8 0.00 0.14 0.20 91 1015.8
20260906152307 33 95 3.5 7.8 0.00 0.14 0.20 91 1015.6
20260906152103 0 29 2.6 7.8 0.00 0.14 0.20 1015.8
20260906151624 0 103 0.0 7.0 0.00 0.14 0.20 1015.5
20260906151203 33 115 0.9 7.8 0.00 0.14 0.20 91 1015.5
20260906150125 0 98 3.5 6.1 0.00 0.14 0.20 1015.5
20260906145559 0 53 0.9 8.7 0.00 0.14 0.20 1015.4
20260906145104 0 33 3.5 8.7 0.00 0.14 0.20 1015.5
20260906144603 0 5 3.5 7.8 0.00 0.14 0.20 1015.5
20260906144100 0 137 0.0 7.0 0.00 0.14 0.20 1015.5
20260906143602 0 74 3.5 7.0 0.00 0.14 0.20 1015.4
20260906143058 0 74 4.3 7.0 0.00 0.14 0.20 1015.4
20260906142746 0 97 4.3 9.6 0.00 0.14 0.20 1015.1
20260906142601 0 111 3.5 7.8 0.00 0.14 0.20 1015.6
20260906142132 0 86 4.3 7.8 0.00 0.14 0.20 1015.3
20260906141058 0 111 5.2 9.6 0.00 0.14 0.20 1015.1
20260906140604 0 122 3.5 11.3 0.00 0.14 0.20 1015.3
20260906140450 0 24 3.5 7.0 0.00 0.14 0.20 1015.0
20260906140122 0 126 5.2 11.3 0.00 0.14 0.20 1015.3
20260906135105 33 99 3.5 7.8 0.00 0.14 0.20 93 1015.3
20260906134838 0 90 1.7 6.1 0.00 0.14 0.20 1015.1
20260906134611 33 61 1.7 7.8 0.00 0.14 0.20 93 1015.1
20260906134133 0 108 3.5 7.8 0.00 0.14 0.20 1015.0
20260906133101 0 29 1.7 6.1 0.00 0.14 0.20 1015.0
20260906132604 0 104 1.7 7.0 0.00 0.14 0.20 1015.0
20260906132103 0 57 2.6 7.8 0.00 0.14 0.20 1014.9
20260906131600 0 159 0.9 7.8 0.00 0.14 0.20 1014.7
20260906131102 0 54 1.7 7.0 0.00 0.14 0.20 1014.7
20260906131039 0 46 0.9 6.1 0.00 0.14 0.20 1014.8
20260906130621 0 76 3.5 6.1 0.00 0.14 0.20 1014.7
20260906125609 33 64 2.6 6.1 0.00 0.14 0.20 96 1014.7
20260906125434 68 51 0.0 5.2 0.00 0.14 0.20 97 1014.4
20260906125104 33 24 1.7 6.1 0.00 0.14 0.20 96 1014.7
20260906124848 0 73 0.0 2.6 0.00 0.14 0.20 1014.5
20260906124611 0 359 0.0 5.2 0.00 0.14 0.20 1014.8
20260906124151 68 5 1.7 5.2 0.00 0.14 0.20 97 1014.5
20260906123149 0 37 0.0 2.6 0.00 0.14 0.20 1014.4
20260906122105 33 27 0.0 6.1 0.00 0.14 0.20 98 1014.4
20260906121606 33 43 0.0 6.1 0.00 0.14 0.20 98 1014.5
20260906121104 0 50 0.0 2.6 0.00 0.14 0.20 1014.5
20260906120558 0 58 0.0 3.5 0.00 0.14 0.20 1014.6
20260906115603 0 56 1.7 6.1 0.00 0.14 0.20 1014.3
20260906115059 0 84 0.0 6.1 0.00 0.14 0.20 1014.3
20260906114947 0 43 3.5 7.8 0.00 0.14 0.20 1014.2
20260906114619 0 24 0.9 6.1 0.00 0.14 0.20 1014.1
20260906113603 0 72 0.0 7.8 0.00 0.14 0.20 1014.1
20260906113438 0 67 0.0 6.1 0.00 0.16 0.20 1014.0
20260906113059 0 55 0.0 7.8 0.00 0.14 0.20 1013.7
20260906113037 0 1 1.7 5.2 0.00 0.16 0.20 1014.0
20260906112622 0 99 1.7 6.1 0.00 0.16 0.20 1014.1
20260906111615 0 96 0.0 5.2 0.00 0.16 0.20 1014.2
20260906111038 0 83 0.0 0.0 0.00 0.16 0.20 1013.9
20260906110615 0 77 0.0 0.0 0.00 0.16 0.20 1014.3
20260906105828 0 80 0.0 0.0 0.00 0.16 0.20 1014.0
20260906105621 0 46 0.0 5.2 0.00 0.16 0.20 1014.0
20260906105154 0 67 0.0 5.2 0.00 0.16 0.20 1013.9
20260906104129 68 107 0.0 0.0 0.00 0.16 0.20 96 1013.8
20260906103623 68 6 0.0 0.0 0.00 0.16 0.20 96 1013.9
20260906103120 0 78 0.0 0.0 0.00 0.16 0.20 1013.7
20260906102619 0 19 0.0 0.9 0.00 0.16 0.20 1013.5
20260906102122 0 6 0.0 5.2 0.00 0.16 0.20 1013.6
20260906101646 33 138 0.0 5.2 0.00 0.16 0.20 100 1013.4
20260906101219 33 43 0.0 0.0 0.00 0.16 0.20 100 1013.5
20260906100615 0 47 0.0 0.0 0.00 0.16 0.20 1013.5
20260906100525 68 37 0.0 0.0 0.00 0.16 0.20 96 1013.7
20260906100028 69 4 0.0 6.1 0.00 0.18 0.20 95 1013.2
20260906095559 68 19 0.0 2.6 0.00 0.17 0.20 96 1013.4
20260906095138 0 48 0.0 6.1 0.00 0.18 0.20 1013.2
20260906094530 0 107 0.0 5.2 0.00 0.18 0.20 1013.0
20260906094124 69 31 0.0 6.1 0.00 0.18 0.20 95 1013.2
20260906093101 0 22 2.6 5.2 0.00 0.18 0.20 1013.3
20260906092601 33 109 0.0 7.0 0.00 0.18 0.20 100 1012.9
20260906092431 0 61 2.6 6.1 0.00 3.30 0.20 1013.3
20260906092100 33 23 1.7 8.7 0.00 0.18 0.20 100 1012.8
20260906091600 70 45 0.9 8.7 0.00 0.18 0.20 94 1012.8
20260906091325 33 9 0.9 7.8 0.00 0.18 0.20 94 1012.8
20260906091059 70 44 1.7 9.6 0.00 0.18 0.20 94 1012.8
20260906090556 70 124 0.0 9.6 0.00 0.18 0.20 94 1012.9
20260906085636 33 98 0.9 7.8 0.00 0.18 0.20 94 1012.7
20260906084551 0 43 0.0 7.8 0.00 0.18 0.20 1012.7
20260906084231 71 88 0.0 5.2 0.00 0.18 0.20 96 1012.9
20260906084045 0 95 0.0 7.8 0.00 0.18 0.20 1012.7
20260906083551 0 123 1.7 7.0 0.00 0.18 0.20 1012.8
20260906083132 0 100 1.7 8.7 0.00 0.18 0.20 1012.4
20260906082551 0 103 3.5 8.7 0.00 0.18 0.20 1012.8
20260906082439 33 14 0.9 7.0 0.00 0.18 0.20 94 1013.2
20260906082343 33 151 0.0 6.1 0.00 0.18 0.20 94 1013.2
20260906082053 0 92 3.5 9.6 0.00 0.18 0.20 1012.9
20260906081605 0 109 0.9 9.6 0.00 0.18 0.20 1012.7
20260906081148 33 31 3.5 8.7 0.00 0.18 0.20 96 1013.0
20260906080701 33 140 2.6 8.7 0.00 0.18 0.20 96 1013.0
20260906080219 33 16 0.0 5.2 0.00 0.18 0.20 96 1013.0
20260906075205 71 69 2.6 7.0 0.00 0.18 0.20 96 1013.1
20260906074731 0 92 0.0 7.0 0.00 0.18 0.20 1013.0
20260906074308 33 108 0.0 7.0 0.00 0.18 0.20 95 1012.9
20260906073308 33 359 0.0 7.0 0.00 0.18 0.20 94 1013.0
20260906071615 0 67 0.9 6.1 0.00 3.30 0.20 1013.2
20260906070604 72 96 4.3 6.1 0.00 3.30 0.10 94 1013.5
20260906070107 72 46 1.7 5.2 0.00 3.30 0.10 94 1013.4
20260906065600 72 53 2.6 7.8 0.00 3.30 0.10 93 1013.3
20260906065102 72 49 1.7 7.8 0.00 3.30 0.10 93 1013.3
20260906064551 0 57 3.5 7.8 0.00 3.30 0.10 1013.4
20260906064050 0 93 0.9 5.2 0.00 3.30 0.10 1013.2
20260906063556 73 2 0.0 5.2 0.00 3.30 0.10 93 1013.5
20260906063054 73 141 0.0 5.2 0.00 3.30 0.10 93 1013.5
20260906062611 32 114 0.0 6.1 0.00 3.30 0.10 92 1013.3
20260906062056 32 55 0.0 6.1 0.00 3.30 0.00 92 1013.3
20260906061547 0 97 0.0 5.2 0.00 3.30 0.00 1013.3
20260906061054 33 75 2.6 5.2 0.00 3.30 0.00 92 1013.2
20260906060554 33 62 2.6 5.2 0.00 3.30 0.00 92 1013.3
20260906060049 0 52 0.9 5.2 0.00 3.30 0.00 1013.2
20260906055936 0 356 0.0 0.0 0.02 6.46 2.64 1013.0
20260906055557 33 36 2.6 5.2 0.00 3.30 0.00 100 1013.2
20260906055054 33 43 0.0 0.9 0.00 3.30 0.00 100 1013.2
20260906054556 0 47 0.0 2.6 0.00 3.30 0.00 1013.0
20260906054053 33 10 0.0 5.2 0.00 3.30 0.00 100 1012.9
20260906053555 33 44 2.6 5.2 0.00 3.30 0.00 100 1013.1
20260906053528 32 54 0.0 2.6 0.00 3.30 0.00 100 1013.1
20260906053119 33 72 2.6 3.5 0.00 3.30 0.00 100 1013.2
20260906052044 74 22 0.0 5.2 0.02 3.30 0.00 92 1013.1
20260906051539 74 25 1.7 6.1 0.02 3.30 0.00 92 1012.9
20260906051418 32 4 0.0 5.2 0.02 6.46 0.00 92 1012.7
20260906051116 74 34 0.9 6.1 0.02 3.30 0.00 92 1012.9
20260906050402 0 11 0.0 6.1 0.02 6.46 2.64 1013.0
20260906050038 32 75 1.7 6.1 0.02 6.46 2.64 92 1012.9
20260906045039 33 55 0.0 3.5 0.02 6.46 2.64 92 1012.9
20260906044540 33 11 0.0 3.5 0.02 6.46 2.64 92 1013.0
20260906044110 0 5 0.0 0.0 0.02 6.46 2.64 1012.8
20260906043530 0 51 0.0 0.0 0.02 6.46 2.64 1013.1
20260906043103 0 349 0.0 0.0 0.02 6.46 2.64 1013.2
20260906042040 33 11 0.0 0.0 0.00 6.44 2.54 100 1012.7
20260906041540 33 30 0.0 0.0 0.00 6.44 2.54 100 1012.6
20260906041104 74 35 0.0 0.0 0.00 6.44 2.54 91 1012.8
20260906040947 0 356 0.0 0.0 0.00 6.44 2.54 1012.6
20260906040553 0 11 0.0 0.0 0.00 6.44 2.54 1012.6
20260906035529 0 39 0.0 0.0 0.00 6.46 2.54 1012.7
20260906035036 0 12 0.0 5.2 0.00 6.46 2.54 1012.8
20260906034953 0 30 0.9 5.2 0.00 6.46 2.54 1012.6
20260906034548 75 59 0.0 6.1 0.00 6.46 2.54 91 1012.6
20260906034112 75 46 0.0 5.2 0.00 6.46 2.54 91 1012.6
20260906033031 0 41 2.6 5.2 0.00 6.46 2.54 1012.5
20260906032537 75 33 3.5 6.1 0.00 6.46 2.54 91 1012.4
20260906032041 75 35 1.7 6.1 0.00 6.46 2.54 91 1012.6
20260906031534 0 74 1.7 6.1 0.00 6.49 2.54 1012.5
20260906031033 0 102 0.0 6.1 0.00 6.49 2.54 1012.3
20260906030732 0 70 2.6 5.2 0.00 6.49 2.54 1012.3
20260906030531 0 59 3.5 6.1 0.00 6.49 2.54 1012.3
20260906030101 0 48 1.7 6.1 0.00 6.49 2.54 1012.4
20260906025027 0 47 2.6 5.2 0.00 6.49 2.54 1012.4
20260906024528 0 79 3.5 6.1 0.00 6.49 2.54 1012.0
20260906024029 0 11 0.0 7.0 0.00 6.49 2.54 1012.2
20260906023530 0 61 5.2 7.8 0.00 6.51 2.54 1012.0
20260906023025 0 56 1.7 7.8 0.00 6.51 2.54 1012.0
20260906022515 0 60 0.0 5.2 0.00 6.51 2.54 1011.8
20260906022411 78 82 0.0 6.1 0.02 6.51 2.54 89 1010.8
20260906022002 0 104 0.0 5.2 0.00 6.51 2.54 1012.1
20260906021456 0 60 0.0 5.2 0.00 6.51 2.54 1011.8
20260906021200 32 111 0.0 5.2 0.02 6.51 2.54 90 1011.5
20260906020954 0 13 0.0 1.7 0.02 6.51 2.54 1011.6
20260906020533 32 74 0.0 3.5 0.02 6.51 2.54 90 1011.3
20260906015501 33 88 2.6 5.2 0.02 6.51 2.54 90 1011.1
20260906015314 0 38 0.9 3.5 0.02 6.51 2.42 1010.7
20260906015003 0 21 0.0 5.2 0.02 6.51 2.54 1011.3
20260906014509 0 2 0.9 5.2 0.02 6.51 2.54 1011.2
20260906014049 0 30 0.0 7.8 0.02 6.51 2.54 1011.3
20260906013739 78 63 3.5 6.1 0.00 6.51 2.42 88 1010.6
20260906013451 77 81 2.6 7.8 0.02 6.51 2.54 89 1011.1
20260906013403 78 357 1.7 3.5 0.00 6.51 2.42 87 1010.6
20260906013317 78 46 0.0 2.6 0.00 6.51 2.42 87 1010.7
20260906013212 0 8 0.0 2.6 0.00 6.51 2.42 1010.8
20260906013004 77 84 0.0 5.2 0.02 6.51 2.54 89 1011.2
20260906012534 78 66 1.7 6.1 0.02 6.51 2.54 89 1010.8
20260906011024 78 60 0.0 5.2 0.00 6.51 2.42 88 1010.7
20260906010557 78 34 4.3 5.2 0.00 6.51 2.42 88 1011.1
20260906010234 78 61 0.0 3.5 0.00 6.51 2.42 88 1011.1
20260906003947 0 49 0.0 3.5 0.02 6.51 2.42 1010.8
20260906002931 0 7 0.9 3.5 0.02 6.51 2.42 1010.6
20260906002427 33 43 0.0 5.2 0.02 6.51 2.42 100 1010.5
20260906001936 33 65 1.7 5.2 0.02 6.54 2.42 100 1010.6
20260906001430 80 60 0.0 6.1 0.05 6.54 2.42 85 1010.6
20260906000936 80 27 0.0 7.0 0.05 6.54 2.42 85 1010.6
20260906000422 0 48 4.3 7.0 0.05 6.54 2.42 1010.6
20260905235931 0 82 2.6 8.7 0.05 6.54 2.42 1010.6
20260905235429 81 61 0.0 9.6 0.05 6.54 2.42 100 1010.4
20260905234938 81 6 0.9 9.6 0.05 6.54 2.42 100 1010.5
20260905234421 0 84 4.3 8.7 0.05 6.54 2.42 1010.3
20260905233933 82 55 0.9 8.7 0.02 6.51 2.30 82 1010.4
20260905233420 82 60 0.9 8.7 0.02 6.51 2.30 82 1010.3
20260905232904 82 78 6.1 9.6 0.02 6.51 2.30 82 1010.3
20260905232402 83 23 0.0 11.3 0.02 6.51 2.30 81 1010.3
20260905231913 83 50 1.7 11.3 0.02 6.51 2.23 81 1010.3
20260905231753 85 325 0.0 7.0 0.05 6.49 2.19 79 1010.0
20260905231650 86 81 0.0 8.7 0.05 6.49 2.19 100 1010.1
20260905231408 86 93 0.9 8.7 0.02 6.49 2.19 79 1010.2
20260905230931 86 77 0.0 7.0 0.02 6.49 2.19 79 1010.3
20260905230456 86 358 0.0 6.1 0.05 6.49 2.19 79 1010.2
20260905225438 85 3 0.0 7.8 0.05 6.49 2.19 79 1010.0
20260905224753 33 35 0.0 7.8 0.05 6.49 2.19 79 1010.0
20260905224411 33 41 0.0 9.6 0.05 6.49 2.19 79 1010.1
20260905224338 88 68 2.6 9.6 0.02 6.46 2.07 77 1009.8
20260905224156 89 41 0.0 7.0 0.00 6.44 1.95 100 1009.8
20260905223921 33 62 3.5 9.6 0.05 6.49 2.19 78 1010.0
20260905223444 33 47 0.9 7.8 0.05 6.49 2.19 78 1010.1
20260905222750 89 0 0.9 7.8 0.00 6.44 1.95 75 1009.7
20260905222642 33 173 0.0 7.8 0.00 6.44 1.95 73 1010.0
20260905222409 0 66 0.0 7.0 0.05 6.49 2.19 1009.8
20260905221955 88 48 0.9 7.8 0.05 6.49 2.19 77 1009.8
20260905220959 88 45 2.6 9.6 0.02 6.46 2.07 76 1009.7
20260905215435 33 21 2.6 7.8 0.00 6.44 1.95 74 1009.8
20260905214404 33 57 0.9 7.0 0.00 6.44 1.95 71 1009.7
20260905214250 92 13 0.0 2.6 0.00 6.44 1.95 71 1009.8
20260905213910 33 16 0.0 7.8 0.00 6.44 1.95 71 1009.9
20260905213419 91 359 0.0 7.8 0.00 6.44 1.95 100 1010.0
20260905212954 33 344 0.0 7.0 0.00 6.44 1.95 70 1009.9
20260905212406 33 350 0.0 7.0 0.00 6.44 1.95 70 1010.1
20260905211943 33 341 0.0 7.0 0.00 6.44 1.95 71 1010.0
20260905210913 91 350 0.0 2.6 0.00 6.44 1.95 100 1009.9
20260905210408 90 50 0.0 6.1 0.00 6.44 1.95 100 1010.1
20260905205912 33 9 0.9 6.1 0.00 6.44 1.95 72 1010.2
20260905205407 33 61 0.0 3.5 0.00 6.44 1.95 70 1010.0
20260905205048 92 356 0.0 5.2 0.00 6.44 1.95 71 1010.3
20260905204907 91 93 0.0 5.2 0.00 6.44 1.95 71 1009.8
20260905204430 33 350 0.0 7.0 0.00 6.44 1.95 69 1009.9
20260905204002 33 336 0.0 7.0 0.00 6.44 1.95 70 1010.0
20260905202914 92 34 0.0 3.5 0.00 6.44 1.95 70 1010.2
20260905202406 33 348 0.0 2.6 0.00 6.44 1.95 71 1010.2
20260905201912 33 347 0.0 6.1 0.00 6.44 1.95 72 1010.2
20260905201408 33 21 0.0 6.1 0.00 6.44 1.95 71 1010.2
20260905201254 33 23 0.9 5.2 0.00 6.44 1.95 73 1010.2
20260905201152 33 8 0.0 6.1 0.00 6.44 1.95 74 1010.2
20260905200926 33 6 0.0 7.0 0.00 6.44 1.95 69 1010.0
20260905200449 33 66 0.0 7.0 0.00 6.44 1.95 72 1010.3
20260905195434 90 281 0.0 1.7 0.00 6.44 1.95 74 1010.1
20260905194408 33 35 0.0 6.1 0.00 6.44 1.95 72 1010.3
20260905193914 33 354 0.0 3.5 0.00 6.44 1.95 73 1010.5
20260905193410 92 315 0.0 0.9 0.00 6.44 1.95 100 1010.6
20260905192912 92 4 0.9 2.6 0.00 6.44 1.95 100 1010.7
20260905192428 33 349 0.0 2.6 0.00 6.44 1.95 72 1010.8
20260905192227 0 350 0.0 1.7 0.00 6.44 1.85 1010.8
20260905192213 33 15 0.0 1.7 0.00 6.44 1.85 100 1010.6
20260905192126 33 31 0.0 1.7 0.00 6.44 1.85 100 1010.9
20260905191933 33 35 0.0 2.6 0.00 6.44 1.95 71 1010.8
20260905191457 91 339 0.0 5.2 0.00 6.44 1.89 100 1010.8
20260905191031 33 307 0.0 5.2 0.00 6.44 1.85 70 1010.7
20260905190600 0 348 0.0 0.0 0.00 6.44 1.85 1010.9
20260905184415 33 359 0.0 0.9 0.00 6.44 1.85 71 1011.2
20260905183923 33 352 0.0 0.0 0.00 6.44 1.85 71 1011.1
20260905183434 93 10 0.0 1.7 0.00 6.44 1.85 69 1011.3
20260905182918 92 54 0.0 1.7 0.00 6.44 1.85 71 1011.1
20260905182654 92 355 0.0 0.9 0.00 6.44 1.75 72 1010.8
20260905182405 93 38 0.0 1.7 0.00 6.44 1.85 68 1011.1
20260905181921 93 117 0.0 1.7 0.00 6.44 1.85 100 1010.9
20260905180910 91 11 0.0 0.9 0.00 6.44 1.75 72 1011.3
20260905180402 0 35 0.0 1.7 0.00 6.44 1.75 1010.9
20260905175915 33 59 0.0 2.6 0.00 6.44 1.75 75 1011.1
20260905175407 33 9 0.0 2.6 0.00 6.44 1.65 75 1010.9
20260905174912 33 3 0.0 2.6 0.00 6.44 1.65 74 1011.1
20260905174408 33 15 0.0 2.6 0.00 6.44 1.65 74 1010.8
20260905173904 33 45 0.0 6.1 0.00 6.44 1.56 76 1010.7
20260905173404 33 110 3.5 6.1 0.00 6.44 1.56 77 1010.8
20260905172907 33 59 0.0 1.7 0.00 6.44 1.56 74 1010.8
20260905172359 33 115 0.0 5.2 0.00 6.44 1.56 74 1011.1
20260905172157 33 42 0.0 5.2 0.00 6.44 1.56 75 1011.5
20260905171903 33 356 0.0 5.2 0.00 6.44 1.56 74 1011.3
20260905171556 33 48 1.7 3.5 0.00 6.44 1.56 73 1011.5
20260905171354 33 344 0.0 3.5 0.00 6.44 1.56 74 1010.9
20260905170930 33 7 0.0 3.5 0.00 6.44 1.56 73 1011.2
20260905165927 33 357 0.0 3.5 0.00 6.44 1.56 74 1011.4
20260905165344 33 0 0.0 3.5 0.00 6.44 1.56 100 1011.4
20260905164400 88 29 0.0 5.2 0.00 6.44 1.56 75 1011.4
20260905163857 88 8 0.0 7.0 0.00 6.44 1.56 74 1011.4
20260905163402 88 341 0.0 7.0 0.00 6.44 1.56 74 1011.6
20260905162858 33 357 0.0 5.2 0.00 6.44 1.56 100 1011.4
20260905162400 33 22 1.7 5.2 0.00 6.44 1.56 100 1011.4
20260905161901 33 357 0.0 5.2 0.00 6.44 1.56 100 1011.4
20260905161401 33 350 0.0 5.2 0.00 6.44 1.56 100 1011.6
20260905160901 88 43 0.0 0.9 0.00 6.44 1.56 77 1011.4
20260905160412 88 355 0.0 3.5 0.00 6.44 1.56 78 1011.4
20260905160311 87 91 0.0 2.6 0.00 6.44 1.56 79 1011.1
20260905155934 88 12 0.0 3.5 0.00 6.44 1.56 100 1011.4